sat.trackr.live / text

‹ back to catalog

QIANFAN-144

NORAD 69090 · 2026-104T

PAYLOAD ACTIVE UNKNOWN

§ Identity

Operator
Country
PRC
Launch date
2026-05-12
Launch site
TAISC
Launch vehicle
Mass (kg)
RCS (m²)

External: N2YO · Heavens-Above · Gunter

§ Orbital elements

Epoch: 2026-09-20T03:41:14.150400Z

Period
106.59 min
Inclination
88.9905°
Eccentricity
0.0002540
Mean motion
13.51020815 rev/d
Perigee alt
1,066.6 km
Apogee alt
1,070.4 km
Semi-major
7,446.6 km
B*
8.7240e-5
RAAN
331.7744°
Arg perigee
103.2593°
Mean anomaly
256.8842°
Rev number
1,798

§ Raw data

QIANFAN-1441 69090U 26104T   26263.15363600  .00000068  00000+0  87240-4 0  99982 69090  88.9905 331.7744 0002540 103.2593 256.8842 13.51020815 17984

JSON: /api/v1/satellites/69090 · /tle

For live sub-satellite position, see the globe view (requires WebGL).

§ Visibility from observer

Set your observer location to see the next 7 days of passes ≥ 10°. The values pass through the URL so the page stays shareable.

No JS? Fill the form by hand. The geolocation button needs JavaScript.